Date String (YYYY-MM-DD hh:mm:ss) UTC,Instrument flags,absolute air pressure of the measurement (hPa),sample flow rate (lpm),inlet stack bypass flow (lpm),air temperature of the measurement (°C),ambient temperature measured by the external sensor (°C),aerosol sample conditioner tube jacket temperature (°C),OPC LED temperature (°C),internal box temperature (°C),relative humidity of the measurement (%),span deviation,mass concentration of particles derived from Lorenz-Mie calculation of OPC scattering (μg/m³),mass concentration of particles derived from Lorenz-Mie calculation of OPC scattering (μg/m³),mass concentration of particles derived from Lorenz-Mie calculation of OPC scattering (μg/m³)
DateTimeUTC,F1_M11,P_M11,Q1_M11,Q2_M11,T1_M11,T2_M11,T3_M11,T4_M11,T5_M11,U1_M11,ZSPAN_M11,X0_M11,X2_M11,X1_M11
2024-05-27 00:00:00,SystemResetWarning,0827.1,5.00,000.00,031.1,030.3,000.0,039.4,032.7,010.8,0000.0,0003.32,0002.24,0001.87
2024-05-27 00:01:00,SystemResetWarning,0827.1,5.00,000.00,031.1,030.3,000.0,039.4,032.7,010.6,0000.0,0003.26,0002.23,0001.87
2024-05-27 00:02:00,SystemResetWarning,0827.1,5.00,000.00,031.1,030.4,000.0,039.4,032.7,010.7,0000.0,0003.31,0002.26,0001.88
2024-05-27 00:03:00,SystemResetWarning,0827.1,5.00,000.00,031.1,030.4,000.0,039.4,032.8,010.8,0000.0,0003.36,0002.27,0001.88
2024-05-27 00:04:00,SystemResetWarning,0827.1,5.00,000.00,031.1,030.4,000.0,039.4,032.8,011.0,0000.0,0003.46,0002.29,0001.89
2024-05-27 00:05:00,SystemResetWarning,0827.2,5.00,000.00,031.1,030.4,000.0,039.4,032.8,011.0,0000.0,0003.58,0002.29,0001.88
2024-05-27 00:06:00,SystemResetWarning,0827.1,5.00,000.00,031.1,030.4,000.0,039.4,032.8,011.4,0000.0,0003.73,0002.36,0001.89
2024-05-27 00:07:00,SystemResetWarning,0827.1,5.00,000.00,031.1,030.4,000.0,039.4,032.8,011.7,0000.0,0003.94,0002.40,0001.89
2024-05-27 00:08:00,SystemResetWarning,0827.1,5.00,000.00,031.1,030.4,000.0,039.4,032.8,010.9,0000.0,0004.03,0002.42,0001.89
2024-05-27 00:09:00,SystemResetWarning,0827.1,5.00,000.00,031.1,030.4,000.0,039.5,032.8,010.8,0000.0,0004.28,0002.50,0001.89
2024-05-27 00:10:00,SystemResetWarning,0827.0,5.00,000.00,031.1,030.4,000.0,039.5,032.8,010.9,0000.0,0004.85,0002.54,0001.88
2024-05-27 00:11:00,SystemResetWarning,0827.1,5.00,000.00,031.2,030.4,000.0,039.5,032.8,010.8,0000.0,0004.95,0002.55,0001.89
2024-05-27 00:12:00,SystemResetWarning,0827.1,5.00,000.00,031.2,030.4,000.0,039.5,032.8,011.1,0000.0,0006.21,0002.60,0001.88
2024-05-27 00:13:00,SystemResetWarning,0827.2,5.00,000.00,031.2,030.4,000.0,039.5,032.8,011.3,0000.0,0006.40,0002.61,0001.88
2024-05-27 00:14:00,SystemResetWarning,0827.2,5.00,000.00,031.2,030.4,000.0,039.5,032.8,011.6,0000.0,0006.16,0002.57,0001.89
2024-05-27 00:15:00,SystemResetWarning,0827.2,5.00,000.00,031.2,030.4,000.0,039.5,032.8,011.6,0000.0,0005.95,0002.52,0001.88
2024-05-27 00:16:00,SystemResetWarning,0827.2,5.00,000.00,031.2,030.4,000.0,039.5,032.9,011.4,0000.0,0005.87,0002.51,0001.87
2024-05-27 00:17:00,SystemResetWarning,0827.1,5.00,000.00,031.2,030.5,000.0,039.5,032.9,011.4,0000.0,0005.85,0002.50,0001.87
2024-05-27 00:18:00,SystemResetWarning,0827.2,5.00,000.00,031.2,030.5,000.0,039.5,032.9,011.5,0000.0,0005.79,0002.48,0001.87
2024-05-27 00:19:00,SystemResetWarning,0827.1,5.00,000.00,031.2,030.5,000.0,039.5,032.9,011.3,0000.0,0005.65,0002.46,0001.87
2024-05-27 00:20:00,SystemResetWarning,0827.2,4.99,000.00,031.2,030.5,000.0,039.5,032.9,011.6,0000.0,0005.55,0002.45,0001.88
2024-05-27 00:21:00,SystemResetWarning,0827.1,5.00,000.00,031.2,030.5,000.0,039.5,032.9,011.6,0000.0,0005.14,0002.42,0001.88
2024-05-27 00:22:00,SystemResetWarning,0827.1,5.00,000.00,031.2,030.5,000.0,039.5,032.9,011.2,0000.0,0005.16,0002.43,0001.89
2024-05-27 00:23:00,SystemResetWarning,0827.1,5.00,000.00,031.2,030.5,000.0,039.6,032.9,010.6,0000.0,0004.45,0002.42,0001.89
2024-05-27 00:24:00,SystemResetWarning,0827.1,5.00,000.00,031.2,030.5,000.0,039.6,032.9,010.4,0000.0,0004.22,0002.40,0001.90
2024-05-27 00:25:00,SystemResetWarning,0827.1,4.99,000.00,031.2,030.5,000.0,039.6,032.9,010.7,0000.0,0004.39,0002.41,0001.91
2024-05-27 00:26:00,SystemResetWarning,0827.1,5.00,000.00,031.3,030.5,000.0,039.6,032.9,010.8,0000.0,0004.48,0002.43,0001.92
2024-05-27 00:27:00,SystemResetWarning,0827.1,5.00,000.00,031.3,030.5,000.0,039.6,032.9,011.0,0000.0,0004.48,0002.43,0001.93
2024-05-27 00:28:00,SystemResetWarning,0827.1,5.00,000.00,031.3,030.5,000.0,039.6,032.9,011.1,0000.0,0004.36,0002.39,0001.93
2024-05-27 00:29:00,SystemResetWarning,0827.1,5.00,000.00,031.3,030.5,000.0,039.6,032.9,010.9,0000.0,0004.22,0002.36,0001.93
2024-05-27 00:30:00,SystemResetWarning,0827.1,5.00,000.00,031.3,030.5,000.0,039.6,032.9,010.9,0000.0,0004.20,0002.36,0001.93
2024-05-27 00:31:00,SystemResetWarning,0827.2,5.00,000.00,031.3,030.5,000.0,039.6,032.9,010.8,0000.0,0004.18,0002.33,0001.92
2024-05-27 00:32:00,SystemResetWarning,0827.2,5.00,000.00,031.3,030.5,000.0,039.6,032.9,011.0,0000.0,0004.13,0002.33,0001.93
2024-05-27 00:33:00,SystemResetWarning,0827.2,5.01,000.00,031.3,030.5,000.0,039.6,033.0,010.7,0000.0,0003.94,0002.32,0001.93
2024-05-27 00:34:00,SystemResetWarning,0827.2,5.00,000.00,031.3,030.5,000.0,039.6,033.0,010.7,0000.0,0003.68,0002.31,0001.93
2024-05-27 00:35:00,SystemResetWarning,0827.2,5.00,000.00,031.3,030.5,000.0,039.6,033.0,011.0,0000.0,0003.98,0002.31,0001.92
2024-05-27 00:36:00,SystemResetWarning,0827.2,5.00,000.00,031.3,030.5,000.0,039.6,033.0,011.3,0000.0,0003.89,0002.31,0001.91
2024-05-27 00:37:00,SystemResetWarning,0827.2,5.00,000.00,031.3,030.6,000.0,039.6,033.0,011.0,0000.0,0003.79,0002.29,0001.90
2024-05-27 00:38:00,SystemResetWarning,0827.2,5.00,000.00,031.3,030.6,000.0,039.7,033.0,011.0,0000.0,0003.84,0002.32,0001.88
2024-05-27 00:39:00,SystemResetWarning,0827.2,4.99,000.00,031.3,030.6,000.0,039.7,033.0,011.3,0000.0,0004.02,0002.38,0001.89
2024-05-27 00:40:00,SystemResetWarning,0827.3,4.99,000.00,031.3,030.6,000.0,039.7,033.0,010.9,0000.0,0004.02,0002.38,0001.89
2024-05-27 00:41:00,SystemResetWarning,0827.3,4.99,000.00,031.3,030.6,000.0,039.7,033.0,011.0,0000.0,0004.06,0002.40,0001.89
2024-05-27 00:42:00,SystemResetWarning,0827.3,5.01,000.00,031.4,030.6,000.0,039.7,033.0,010.8,0000.0,0004.04,0002.40,0001.90
2024-05-27 00:43:00,SystemResetWarning,0827.3,5.01,000.00,031.4,030.6,000.0,039.7,033.0,010.8,0000.0,0004.04,0002.39,0001.89
2024-05-27 00:44:00,SystemResetWarning,0827.3,5.01,000.00,031.4,030.6,000.0,039.7,033.0,010.7,0000.0,0003.99,0002.37,0001.88
2024-05-27 00:45:00,SystemResetWarning,0827.3,5.00,000.00,031.4,030.6,000.0,039.7,033.1,010.7,0000.0,0004.06,0002.37,0001.88
2024-05-27 00:46:00,SystemResetWarning,0827.3,4.99,000.00,031.4,030.6,000.0,039.7,033.0,010.9,0000.0,0003.69,0002.35,0001.88
2024-05-27 00:47:00,SystemResetWarning,0827.4,4.99,000.00,031.4,030.7,000.0,039.7,033.1,010.8,0000.0,0003.41,0002.32,0001.89
2024-05-27 00:48:00,SystemResetWarning,0827.4,5.00,000.00,031.4,030.7,000.0,039.7,033.1,011.1,0000.0,0003.58,0002.34,0001.88
2024-05-27 00:49:00,SystemResetWarning,0827.4,5.00,000.00,031.4,030.7,000.0,039.7,033.1,011.4,0000.0,0003.67,0002.38,0001.89
2024-05-27 00:50:00,SystemResetWarning,0827.4,5.00,000.00,031.4,030.7,000.0,039.7,033.1,010.8,0000.0,0003.54,0002.34,0001.90
2024-05-27 00:51:00,SystemResetWarning,0827.4,5.01,000.00,031.4,030.7,000.0,039.7,033.1,010.9,0000.0,0003.73,0002.40,0001.91
2024-05-27 00:52:00,SystemResetWarning,0827.4,5.00,000.00,031.4,030.7,000.0,039.7,033.1,011.1,0000.0,0003.69,0002.39,0001.91
2024-05-27 00:53:00,SystemResetWarning,0827.4,5.01,000.00,031.4,030.7,000.0,039.7,033.1,011.1,0000.0,0003.75,0002.41,0001.91
2024-05-27 00:54:00,SystemResetWarning,0827.4,5.00,000.00,031.4,030.7,000.0,039.8,033.1,011.1,0000.0,0004.14,0002.40,0001.92
2024-05-27 00:55:00,SystemResetWarning,0827.4,5.00,000.00,031.5,030.7,000.0,039.8,033.1,010.9,0000.0,0005.12,0002.42,0001.94
2024-05-27 00:56:00,SystemResetWarning,0827.4,5.00,000.00,031.5,030.7,000.0,039.8,033.1,010.9,0000.0,0005.20,0002.45,0001.94
2024-05-27 00:57:00,SystemResetWarning,0827.4,5.00,000.00,031.5,030.7,000.0,039.8,033.1,010.8,0000.0,0005.34,0002.52,0001.97
2024-05-27 00:58:00,SystemResetWarning,0827.4,5.00,000.00,031.5,030.7,000.0,039.8,033.1,011.0,0000.0,0005.39,0002.55,0001.98
2024-05-27 00:59:00,SystemResetWarning,0827.4,4.99,000.00,031.5,030.7,000.0,039.8,033.1,010.9,0000.0,0005.38,0002.56,0001.99
